Regional Weather Roundup
Issued by NWS

Home | Current Version | Previous Version | Graphics & Text | Print | Product List | Glossary On
Versions: 1 2 3 4 5 6 7 8 9 10 11 12 13 14 15 16 17 18 19 20 21 22 23 24 25 26 27 28 29 30 31 32 33 34 35 36 37 38 39 40 41 42 43 44 45 46 47 48 49 50
000
ASUS43 KFSD 072202
RWRSD

WEATHER ROUNDUP FOR SOUTH DAKOTA
NATIONAL WEATHER SERVICE SIOUX FALLS SD
400 PM CST WED DEC 07 2016

NOTE: "FAIR" INDICATES FEW OR NO CLOUDS BELOW 12,000 FEET WITH NO
SIGNIFICANT WEATHER AND/OR OBSTRUCTIONS TO VISIBILITY.


SDZ001>005-009-010-012>017-072300-
NORTHWEST AND NORTH CENTRAL SOUTH DAKOTA

CITY           SKY/WX    TMP DP  RH WIND       PRES   REMARKS
BUFFALO          N/A      6  -4  63 NW30G37   30.30R WCI -18
FAITH            N/A      7   0  73 NW24      30.35R WCI -14
MOBRIDGE       MOCLDY     9  -1  64 NW32G41   30.30R WCI -14
$$

SDZ012>016-024>037-041>051-057-063-072>074-072300-
SOUTHWEST AND SOUTH CENTRAL SOUTH DAKOTA

CITY           SKY/WX    TMP DP  RH WIND       PRES   REMARKS
RAPID CTY ARPT CLEAR     12  -4  48 N23       30.34R WCI  -7
PIERRE         CLOUDY    13   3  64 NW30G38   30.36R WCI  -8
CUSTER         SUNNY     10  -9  42 N8G16     30.13R WCI  -2
ELLSWORTH AFB  MOCLDY    13  -4  46 N20G28    30.33R WCI  -5
PHILIP         CLEAR     12   0  58 NW22G29   30.41R WCI  -7
PINE RIDGE     SUNNY     10   1  67 W9        30.36R WCI  -3
SPEARFISH      FAIR       5  -6  61 NW20G26   30.32R WCI -15
WINNER         FAIR      16   2  54 NW25      30.37R WCI  -3
$$

SDZ004>011-016>023-039-040-072300-
NORTHEAST SOUTH DAKOTA

CITY           SKY/WX    TMP DP  RH WIND       PRES   REMARKS
ABERDEEN       CLOUDY    11   0  61 NW24G35   30.29R WCI  -9
WATERTOWN      CLOUDY     9   3  77 W20G33    30.18R WCI -10
SISSETON         N/A     14   6  70 NW23G30   30.16R WCI  -5
$$

SDZ017-020-022-023-036>040-048>070-072300-
SOUTHEAST SOUTH DAKOTA

CITY           SKY/WX    TMP DP  RH WIND       PRES   REMARKS
SIOUX FALLS    PTCLDY    18   6  59 W23G33    30.24R WCI   0
HURON          CLOUDY    15   5  64 NW25G33   30.31R WCI  -4
CHAMBERLAIN    CLEAR     16   5  62 NW23G38   30.36R WCI  -2
MITCHELL       MOCLDY    18   5  57 NW29G35   30.34R WCI  -1
YANKTON        CLEAR    N/A N/A N/A W23G32    30.31R
$$

ABBREVIATIONS USED IN REMARKS
   TC - TEMPERATURE IN CELSIUS
  WCI - WIND CHILL INDEX
   HX - HEAT INDEX
  VSB - VISIBILITY




USA.gov is the U.S. government's official web portal to all federal, state and local government web resources and services.